Home > Time Zones > World Clock > Weather > Germany > Ulm > Past weeks

Flag for Germany Weather past 2 weeks in Ulm, Baden-Württemberg, Germany

Now
63 °F

Scattered clouds.


Feels Like: 63 °F
Forecast: 48 / 72 °F
Wind: 6 mph from Northeast

Location: Laupheim Airport

Current Time: Sep 16, 2014 at 3:34:17 PM

Latest Report: Sep 16, 2014 at 2:52 PM


Visibility: 4 mi

Pressure: 30.01 "Hg

Humidity: 83%

Dew point: 57 °F

Location of UlmLocation

Historic Weather in Ulm — Graph

°F

Ulm temperature yesterday

Maximum temperature yesterday: 68 °F (at 3:20 PM)
Minimum temperature yesterday: 54 °F (at 11:20 PM)
Average temperature yesterday: 60 °F

Past Weeks' High & Low Weather Summary

 TemperatureHumidityPressure
High77 °F (Sep 8, 2:20 PM)100% (Sep 2, 8:20 AM)30.18 "Hg (Sep 2, 8:20 AM)
Low46 °F (Sep 11, 6:20 AM)50% (Sep 7, 3:20 PM)29.92 "Hg (Sep 6, 3:20 PM)
Average59 °F87%30.05 "Hg
* Reported Sep 1 2:20 PM — Sep 16 2:20 PM, Ulm, Weather by CustomWeather, © 2014

Note: Actual official high and low records may vary slightly from our data, if they occured in-between our weather recording intervals... More about our weather records

Advertising

Ulm weather history for previous 24 hours

 ConditionsComfort  
Time TempWeatherWind HumidityBarometerVisibility
2:20 PM
Sep 16
61 °FFog.5 mph88%30.01 "Hg3 mi
2:01 PM59 °FFog.5 mph94%30.01 "Hg3 mi
1:20 PM57 °FFog.2 mph100%30.04 "Hg2 mi
12:48 PM57 °FFog.2 mph94%30.04 "Hg2 mi
12:20 PM55 °FFog.2 mph100%30.04 "Hg1 mi
11:54 AM55 °FFog.1 mph100%30.04 "Hg1 mi
11:20 AM55 °FFog.2 mph100%30.04 "Hg1 mi
10:20 AM54 °FFog.1 mph100%30.04 "Hg0 mi
9:20 AM54 °FFog.1 mph94%30.04 "Hg0 mi
8:20 AM52 °FFog.1 mph100%30.04 "Hg0 mi
7:20 AM52 °FFog.2 mph100%30.04 "Hg0 mi
6:20 AM50 °FFog.1 mph100%30.01 "Hg0 mi
5:20 AM50 °FFog.1 mph100%30.01 "Hg0 mi
4:20 AM50 °FFog.1 mph100%30.01 "Hg1 mi
3:48 AM52 °FFog.2 mph100%30.01 "Hg1 mi
3:20 AM52 °FFog.3 mph100%30.01 "Hg1 mi
2:20 AM52 °FFog.3 mph100%30.01 "Hg1 mi
1:20 AM52 °FFog.2 mph100%30.01 "Hg2 mi
12:20 AM52 °FFog.3 mph100%30.01 "Hg4 mi
11:20 PM
Sep 15
54 °FFog.3 mph100%30.01 "HgN/A
10:20 PM55 °FPassing clouds.2 mph94%30.01 "HgN/A
9:20 PM57 °FPassing clouds.5 mph94%30.01 "HgN/A
8:20 PM59 °FPassing clouds.7 mph88%30.01 "HgN/A
7:20 PM61 °FPassing clouds.9 mph83%30.01 "HgN/A
6:20 PM64 °FPassing clouds.9 mph73%30.01 "HgN/A
5:20 PM66 °FPassing clouds.9 mph73%30.01 "HgN/A
4:20 PM68 °FScattered clouds.9 mph69%30.01 "HgN/A
3:20 PM68 °FScattered clouds.8 mph69%30.01 "HgN/A
Weather by CustomWeather, © 2014

See weather overviewHow to use our weather pages